EW9015 Weather Reports


time (UTC)temp
C
wind
direction
speed
KPH
gust
KPH
rain 1hr
cm
rain 24hr
cm
rain mn
cm
humidity
%
barometer
mb
20260509043042 11 237 1.6 9.7 0.38 1.42 0.20 93 1011.8
20260509041606 11 239 0.0 4.8 0.38 1.32 0.13 92 1011.8
20260509040018 11 276 1.6 6.4 0.36 1.22 0.00 92 1011.9
20260509034552 11 291 3.2 6.4 0.30 1.12 1.12 92 1012.1
20260509033006 11 348 1.6 6.4 0.25 1.02 1.04 92 1012.2
20260509031549 11 310 3.2 8.0 0.20 0.94 0.94 92 1012.2
20260509030007 11 310 4.8 12.9 0.18 0.86 0.86 92 1012.5
20260509024604 11 324 1.6 8.0 0.20 0.81 0.81 91 1012.5
20260509023005 11 285 3.2 6.4 0.25 0.76 0.76 91 1012.4
20260509021556 11 289 3.2 12.9 0.36 0.71 0.71 91 1012.4
20260509020028 11 293 4.8 12.9 0.38 0.69 0.69 91 1012.3
20260509014603 12 310 6.4 12.9 0.43 0.61 0.61 90 1012.5
20260509013033 12 285 4.8 11.3 0.41 0.51 0.51 89 1012.3
20260509011604 12 309 1.6 8.0 0.30 0.38 0.38 88 1012.1
20260509010009 12 30 4.8 12.9 0.20 0.28 0.28 88 1012.0
20260509004553 12 41 4.8 9.7 0.10 0.15 0.15 87 1011.9
20260509003006 12 66 3.2 8.0 0.08 0.10 0.10 85 1011.4
20260509001554 12 48 4.8 14.5 0.08 0.08 0.08 84 1011.6
20260509000008 12 79 4.8 8.0 0.08 0.08 0.08 82 1011.7
20260508234600 13 54 1.6 8.0 0.05 0.05 0.05 79 1011.8
20260508233006 13 17 6.4 9.7 0.03 0.03 0.03 75 1011.8
20260508231551 13 345 8.0 20.9 0.00 0.00 0.00 73 1012.0
20260508230009 15 42 8.0 17.7 0.00 0.00 0.00 69 1011.7
20260508224558 15 33 8.0 16.1 0.00 0.00 0.00 65 1011.4
20260508223022 16 354 4.8 9.7 0.00 0.00 0.00 62 1011.5
20260508221600 16 293 4.8 12.9 0.00 0.00 0.00 59 1011.2
20260508220027 16 287 6.4 20.9 0.00 0.00 0.00 54 1011.3
20260508214603 16 312 8.0 22.5 0.00 0.00 0.00 55 1011.2
20260508213029 16 281 3.2 9.7 0.00 0.00 0.00 56 1011.2
20260508211519 16 282 4.8 8.0 0.00 0.00 0.00 55 1011.2
20260508210035 17 268 3.2 11.3 0.00 0.00 0.00 54 1011.1
20260508204506 17 264 3.2 20.9 0.00 0.00 0.00 53 1011.3
20260508203037 17 294 8.0 16.1 0.00 0.00 0.00 51 1011.5
20260508201511 17 301 11.3 22.5 0.00 0.00 0.00 51 1011.9
20260508200044 17 282 3.2 16.1 0.00 0.00 0.00 51 1011.9
20260508194515 17 261 12.9 22.5 0.00 0.00 0.00 49 1012.4
20260508193051 17 254 14.5 29.0 0.00 0.00 0.00 49 1012.7
20260508191529 17 281 8.0 17.7 0.00 0.00 0.00 50 1012.8
20260508190107 17 264 11.3 20.9 0.00 0.00 0.00 49 1013.0
20260508184531 17 295 6.4 19.3 0.00 0.00 0.00 50 1013.1
20260508183049 16 319 8.0 24.1 0.00 0.00 0.00 51 1013.2
20260508181519 16 305 9.7 30.6 0.00 0.00 0.00 51 1013.5
20260508180052 17 287 19.3 29.0 0.00 0.00 0.00 48 1013.7
20260508174538 17 251 9.7 27.4 0.00 0.00 0.00 51 1013.7
20260508173049 16 295 14.5 32.2 0.00 0.00 0.00 52 1014.0
20260508171540 16 271 16.1 24.1 0.00 0.00 0.00 51 1014.4
20260508170145 16 307 16.1 27.4 0.00 0.00 0.00 52 1014.8
20260508164527 15 311 9.7 27.4 0.00 0.00 0.00 53 1014.9
20260508163101 15 295 14.5 25.7 0.00 0.00 0.00 54 1015.2
20260508161550 15 296 12.9 24.1 0.00 0.00 0.00 54 1015.4
20260508160042 15 288 14.5 25.7 0.00 0.00 0.00 53 1015.5
20260508154528 15 292 19.3 30.6 0.00 0.00 0.00 53 1015.6
20260508153100 15 270 17.7 29.0 0.00 0.00 0.00 53 1015.5
20260508151517 15 274 22.5 35.4 0.00 0.00 0.00 53 1015.7
20260508150038 14 272 12.9 29.0 0.00 0.00 0.00 55 1015.6
20260508144509 14 336 14.5 30.6 0.00 0.00 0.00 55 1015.9
20260508143056 13 276 14.5 29.0 0.00 0.00 0.00 56 1015.9
20260508141506 13 263 19.3 32.2 0.00 0.00 0.00 56 1016.1
20260508140034 12 289 12.9 30.6 0.00 0.00 0.00 58 1016.1
20260508134606 12 299 9.7 32.2 0.00 0.00 0.00 59 1016.1
20260508133013 11 305 16.1 32.2 0.00 0.00 0.00 59 1016.1
20260508131553 11 292 11.3 27.4 0.00 0.00 0.00 61 1016.4
20260508130004 10 289 11.3 27.4 0.00 0.00 0.00 62 1016.4
20260508124535 10 314 12.9 25.7 0.00 0.00 0.00 63 1016.3
20260508123055 9 267 9.7 19.3 0.00 0.00 0.00 68 1016.2
20260508121537 8 233 6.4 17.7 0.00 0.00 0.00 71 1016.1
20260508120111 8 266 3.2 9.7 0.00 0.00 0.00 74 1016.1
20260508114532 7 274 1.6 8.0 0.00 0.00 0.00 75 1016.1
20260508113102 7 253 1.6 6.4 0.00 0.00 0.00 75 1016.0
20260508111540 7 245 0.0 4.8 0.00 0.00 0.00 74 1016.0
20260508110104 7 237 0.0 4.8 0.00 0.00 0.00 73 1016.0
20260508104537 7 233 0.0 4.8 0.00 0.00 0.00 72 1015.9
20260508103057 7 227 0.0 3.2 0.00 0.00 0.00 71 1016.0
20260508101511 7 243 0.0 3.2 0.00 0.00 0.00 70 1015.9
20260508100057 8 241 1.6 6.4 0.00 0.00 0.00 69 1015.8
20260508094505 8 238 1.6 6.4 0.00 0.00 0.00 69 1015.8
20260508093039 8 235 1.6 11.3 0.00 0.00 0.00 68 1016.0
20260508091514 8 285 1.6 8.0 0.00 0.00 0.00 66 1016.1
20260508090042 8 296 6.4 12.9 0.00 0.00 0.00 65 1016.2
20260508084504 8 285 4.8 14.5 0.00 0.00 0.00 64 1016.2
20260508083036 9 280 6.4 14.5 0.00 0.00 0.00 63 1016.1
20260508081502 9 266 8.0 16.1 0.00 0.00 0.00 62 1016.1
20260508080031 9 324 4.8 17.7 0.00 0.00 0.00 61 1016.1
20260508074501 9 288 3.2 16.1 0.00 0.00 0.00 61 1015.9
20260508073041 9 244 4.8 19.3 0.00 0.00 0.00 59 1016.2
20260508071504 10 288 8.0 19.3 0.00 0.00 0.00 59 1016.1
20260508070032 10 18 11.3 20.9 0.00 0.00 0.00 58 1016.0
20260508064506 9 312 9.7 20.9 0.00 0.00 0.00 58 1016.3
20260508063034 9 299 3.2 16.1 0.00 0.00 0.00 59 1016.5
20260508061520 9 270 6.4 14.5 0.00 0.00 0.00 58 1016.6
20260508060054 9 266 4.8 16.1 0.00 0.00 0.00 58 1016.7
20260508054518 9 293 6.4 20.9 0.00 0.00 0.00 59 1016.6
20260508053046 10 264 8.0 16.1 0.00 0.00 0.00 58 1016.6
20260508051504 10 268 8.0 16.1 0.00 0.00 0.00 57 1016.7
20260508050040 10 283 9.7 20.9 0.00 0.00 0.00 56 1016.9
20260508044605 10 272 6.4 16.1 0.00 0.00 0.00 57 1016.8